Location: Hollywood
(37.6123°N, 80.4440°W)
Time: 09:51:47
(UTC+00:00)

Envisat - Visible Passes

Search period start: 11 June 2026 00:00
Search period end: 21 June 2026 00:00
Orbit: 761 x 763 km, 98.4° (Epoch: 10 June)

Date Brightness Start Highest point End Pass type
(mag) Time Alt. Az. Time Alt. Az. Time Alt. Az.
11 Jun 5.1 06:48:00 10° NE 06:51:15 17° E 06:53:20 14° ESE visible
11 Jun 3.3 08:25:32 10° N 08:30:25 49° WNW 08:33:27 22° SW visible
12 Jun 3.1 07:47:36 10° NNE 07:52:40 70° ESE 07:55:11 30° S visible
13 Jun 4.5 07:10:20 10° NE 07:14:43 29° E 07:16:54 21° SE visible
13 Jun 4.1 08:49:12 10° N 08:53:33 30° WNW 08:57:02 14° WSW visible
14 Jun 5.4 06:34:44 10° ENE 06:36:33 12° E 06:38:24 10° ESE visible
14 Jun 3.0 08:10:53 10° N 08:15:56 69° WNW 08:18:45 26° SSW visible
15 Jun 3.6 07:33:11 10° NNE 07:38:06 49° E 07:40:28 28° SSE visible
15 Jun 4.7 09:13:14 10° NNW 09:16:36 18° WNW 09:19:58 10° WSW visible
16 Jun 4.9 06:56:18 10° NE 07:00:05 21° E 07:02:12 16° SE visible
16 Jun 3.6 08:34:23 10° N 08:39:06 40° WNW 08:42:19 19° SW visible
17 Jun 2.9 07:56:19 10° NNE 08:01:25 85° ESE 08:04:02 29° S visible
18 Jun 4.2 07:18:53 10° NNE 07:23:31 35° E 07:25:45 24° SE visible
18 Jun 4.3 08:58:10 10° NNW 09:02:13 25° WNW 09:05:53 12° WSW visible
19 Jun 5.2 06:42:35 10° ENE 06:45:24 15° E 06:47:28 12° ESE visible
19 Jun 3.2 08:19:41 10° N 08:24:39 56° WNW 08:27:36 24° SW visible
20 Jun 3.3 07:41:51 10° NNE 07:46:52 61° E 07:49:19 30° S visible
20 Jun 4.9 09:22:26 10° NNW 09:25:14 15° WNW 09:28:02 10° W visible
